DateTimeUTC,F1_A11,F1_S11,BsB_S11,BsG_S11,BsR_S11,BbsB_S11,BbsG_S11,BbsR_S11,BaB_A11,BaG_A11,BaR_A11,Tu_S11,T_S11,Uu_S11,U_S11,P_S11,T1_A11
2021-08-04T08:00:00Z,00000200,20000000,,,,,,,-000.08,0000.45,0000.00,17.1,24.2,02.9,01.9,0669.8,30.8
2021-08-04T08:01:00Z,00000200,20000000,,,,,,,0000.63,0000.33,0000.44,17.1,24.2,02.9,01.9,0669.7,30.9
2021-08-04T08:02:00Z,00000200,20000000,,,,,,,-000.03,-000.14,0000.13,17.2,24.2,02.9,01.9,0669.7,30.9
2021-08-04T08:03:00Z,00000200,60000000,,,,,,,-000.16,-000.26,-000.24,17.2,24.3,02.9,01.9,0669.7,30.9
2021-08-04T08:04:00Z,00000200,40000000,-000.23,0000.13,0000.07,-000.40,-000.02,0000.24,-000.18,0000.14,-000.24,17.5,24.2,02.9,01.9,0670.7,30.9
2021-08-04T08:05:00Z,00000200,00000000,0000.01,-000.15,0000.06,0000.23,0000.28,-000.16,0000.14,-000.29,0000.25,17.6,24.1,02.9,01.9,0670.8,30.9
2021-08-04T08:06:00Z,00000200,00000000,-000.08,-000.10,0000.03,0000.02,0000.07,-000.22,-000.68,-000.28,-000.58,17.6,24.1,02.7,01.8,0670.8,30.9
2021-08-04T08:07:00Z,00000200,00000000,0000.33,0000.23,-000.00,0000.10,0000.26,0000.28,0000.10,0000.28,0000.26,17.5,24.1,02.8,01.8,0670.8,30.9
2021-08-04T08:08:00Z,00000200,00000000,-000.02,-000.04,0000.14,-000.56,0000.16,0000.34,-000.02,-000.32,-000.14,17.5,24.0,02.8,01.8,0670.8,30.9
2021-08-04T08:09:00Z,00000200,00000000,0000.15,0000.25,0000.21,-000.07,0000.14,0000.14,-000.02,0000.31,0000.03,17.5,24.0,02.8,01.8,0670.8,30.9
2021-08-04T08:10:00Z,00000200,00000000,0000.94,0000.25,0000.01,-000.15,0000.23,-000.13,0000.38,-000.07,0000.05,17.4,24.0,02.8,01.9,0670.8,30.9
2021-08-04T08:11:00Z,00000200,00000000,0000.14,-000.43,-000.15,0000.29,0000.09,0000.01,-000.10,0000.28,0000.26,17.4,24.0,02.9,02.0,0670.8,30.8
2021-08-04T08:12:00Z,00000200,00000000,-000.17,0000.15,-000.04,-000.05,0000.25,-000.03,0000.32,-000.02,0000.25,17.4,24.0,03.0,02.0,0670.9,30.8
2021-08-04T08:13:00Z,00000200,00000000,0000.54,0000.59,0000.29,-000.17,0000.44,-000.08,-000.31,-000.33,-000.23,17.4,23.9,03.0,02.0,0670.9,30.8
2021-08-04T08:14:00Z,00000200,00000000,0000.27,0000.24,0000.21,-000.09,0000.02,0000.01,0000.17,0000.34,-000.17,17.4,23.9,03.0,02.0,0670.9,30.8
2021-08-04T08:15:00Z,00000200,00000000,0000.13,-000.17,0000.08,-000.25,0000.13,0000.26,0000.23,0000.08,0000.17,17.4,23.9,02.9,02.0,0670.8,30.8
2021-08-04T08:16:00Z,00000200,00000000,-000.54,0000.30,0000.10,0000.30,-000.10,0000.11,-000.10,0000.43,0000.24,17.4,23.9,02.9,02.0,0670.8,30.9
2021-08-04T08:17:00Z,00000200,00000000,0000.53,-000.04,-000.03,0000.16,0000.43,0000.05,0000.14,-000.24,0000.34,17.5,24.0,03.0,02.0,0670.8,30.9
2021-08-04T08:18:00Z,00000200,00000000,0000.27,0000.01,0000.19,-000.25,0000.14,0000.27,0000.44,0000.16,0000.04,17.5,24.0,02.9,01.9,0670.9,30.9
2021-08-04T08:19:00Z,00000200,00000000,-000.56,0000.51,0000.23,-000.18,0000.14,0000.30,-000.25,-000.18,-000.54,17.5,24.0,03.0,02.0,0670.9,30.9
2021-08-04T08:20:00Z,00000200,00000000,0000.75,0000.27,0000.03,0000.06,0000.23,0000.23,-000.54,0000.02,0000.07,17.5,24.0,02.8,01.9,0670.9,30.9
2021-08-04T08:21:00Z,00000200,00000000,0000.36,0000.02,0000.27,-000.46,0000.01,-000.20,0000.40,0000.21,0000.05,17.5,24.0,02.9,02.0,0670.9,30.9
2021-08-04T08:22:00Z,00000200,00000000,0000.78,0000.25,0000.38,0000.58,-000.10,0000.24,-000.19,-000.38,-000.20,17.5,24.0,02.9,01.9,0670.9,30.9
2021-08-04T08:23:00Z,00000200,00000000,0000.49,0000.08,0000.09,0000.13,0000.12,0000.09,0000.31,0000.47,0000.20,17.4,23.9,02.8,01.9,0670.9,30.9
2021-08-04T08:24:00Z,00000200,00000000,0000.85,0000.11,0000.08,-000.20,0000.05,0000.08,-000.05,-000.30,-000.13,17.4,23.9,02.9,02.0,0670.9,30.8
2021-08-04T08:25:00Z,00000200,00000000,0000.31,-000.20,0000.35,-000.20,0000.15,0000.28,0000.07,0000.38,0000.05,17.4,23.9,03.1,02.0,0670.9,30.8
2021-08-04T08:26:00Z,00000200,00000000,0000.53,-000.06,-000.01,-000.68,0000.31,0000.29,0000.34,0000.09,0000.72,17.4,23.9,03.0,02.0,0670.9,30.8
2021-08-04T08:27:00Z,00000200,00000000,0000.14,0000.21,0000.09,-000.13,0000.26,0000.21,-000.28,-000.08,-000.07,17.4,23.9,03.2,02.1,0670.9,30.9
2021-08-04T08:28:00Z,00000200,00000000,-000.17,0000.08,0000.24,0000.14,-000.03,0000.11,0000.13,-000.23,-000.11,17.4,23.9,03.1,02.1,0670.9,30.8
2021-08-04T08:29:00Z,00000200,00000000,-000.05,0000.22,0000.00,-000.22,0000.22,0000.08,0000.31,0000.25,0000.09,17.3,23.9,03.2,02.1,0670.9,30.8
2021-08-04T08:30:00Z,00000200,00000000,-000.10,0000.12,0000.19,0000.45,0000.15,0000.30,0000.09,0000.41,0000.18,17.3,23.9,03.2,02.1,0670.9,30.9
2021-08-04T08:31:00Z,00000200,00000000,-000.22,-000.08,0000.05,-000.13,0000.35,0000.02,0000.39,0000.18,0000.03,17.4,23.9,03.2,02.1,0670.9,30.9
2021-08-04T08:32:00Z,00000200,00000000,-000.32,-000.09,0000.32,-000.44,0000.16,0000.35,0000.15,0000.21,0000.25,17.5,23.9,03.2,02.1,0670.9,30.9
2021-08-04T08:33:00Z,00000200,00000000,0000.33,0000.03,-000.07,0000.21,0000.19,0000.13,0000.31,0000.17,0000.59,17.5,23.9,03.4,02.3,0670.9,30.8
2021-08-04T08:34:00Z,00000200,00000000,0000.28,-000.12,0000.22,0000.10,0000.28,0000.24,0000.14,0000.10,-000.03,17.5,23.9,03.5,02.3,0670.9,30.9
2021-08-04T08:35:00Z,00000200,00000000,0000.56,-000.18,-000.10,-000.21,-000.29,-000.03,-000.29,0000.05,0000.10,17.5,23.9,03.6,02.4,0670.9,30.9
2021-08-04T08:36:00Z,00000200,00000000,-000.08,0000.05,-000.20,-000.43,0000.16,0000.08,0000.02,0000.18,0000.17,17.4,23.9,03.6,02.5,0670.9,30.9
2021-08-04T08:37:00Z,00000200,00000000,0000.00,0000.12,0000.41,0000.21,0000.11,-000.02,0000.32,0000.12,-000.29,17.4,23.9,03.5,02.3,0670.9,30.9
2021-08-04T08:38:00Z,00000200,00000000,0000.36,0000.14,0000.25,-000.32,-000.22,0000.30,-000.14,-000.29,0000.12,17.4,23.9,03.5,02.3,0670.9,30.9
2021-08-04T08:39:00Z,00000200,00000000,0000.29,0000.22,0000.06,-000.23,0000.25,0000.32,0000.41,0000.45,-000.03,17.4,23.8,03.7,02.5,0670.9,30.8
2021-08-04T08:40:00Z,00000200,00000000,0000.33,0000.09,-000.38,0000.05,-000.26,0000.25,0000.09,0000.36,0000.29,17.4,23.8,03.7,02.5,0670.9,30.8
2021-08-04T08:41:00Z,00000200,00000000,-000.17,0000.13,-000.04,0000.00,0000.00,0000.15,0000.30,0000.18,0000.63,17.4,23.8,03.8,02.5,0670.9,30.8
2021-08-04T08:42:00Z,00000200,00000000,0000.60,-000.18,-000.23,-000.54,0000.08,-000.12,0000.09,0000.22,0000.12,17.3,23.8,04.0,02.7,0670.9,30.8
2021-08-04T08:43:00Z,00000200,00000000,-000.68,-000.13,-000.07,-000.70,-000.09,0000.28,0000.26,-000.18,-000.17,17.3,23.8,04.1,02.7,0670.9,30.8
2021-08-04T08:44:00Z,00000200,00000000,0000.03,0000.28,0000.01,0000.30,0000.15,-000.04,0000.08,0000.37,0000.44,17.3,23.8,04.1,02.7,0670.9,30.8
2021-08-04T08:45:00Z,00000200,00000000,0000.21,-000.29,0000.09,0000.16,0000.14,0000.26,0000.42,0000.64,0000.15,17.3,23.8,04.2,02.8,0670.9,30.8
2021-08-04T08:46:00Z,00000200,00000000,-000.19,-000.41,-000.08,-000.49,0000.31,0000.18,0000.27,-000.23,0000.17,17.4,23.8,04.4,03.0,0670.9,30.8
2021-08-04T08:47:00Z,00000200,00000000,-000.32,0000.33,0000.20,-000.39,0000.26,0000.19,-000.13,-000.06,0000.01,17.4,23.8,04.4,03.0,0670.9,30.9
2021-08-04T08:48:00Z,00000200,00000000,0000.31,-000.01,0000.17,-000.26,0000.02,0000.41,-000.27,-000.03,-000.24,17.4,23.8,04.3,02.9,0670.9,30.9
2021-08-04T08:49:00Z,00000200,00000000,0000.39,0000.03,0000.22,0000.37,0000.18,-000.00,-000.57,-000.58,-000.57,17.4,23.8,04.1,02.8,0671.0,30.9
2021-08-04T08:50:00Z,00000200,00000000,0000.63,0000.08,0000.68,0000.20,0000.04,0000.18,0000.02,0000.33,-000.00,17.4,23.8,03.8,02.5,0671.0,30.9
2021-08-04T08:51:00Z,00000200,00000000,0000.77,0000.23,0000.17,0000.08,0000.23,0000.26,0000.42,-000.26,-000.30,17.4,23.8,03.7,02.5,0671.0,30.9
2021-08-04T08:52:00Z,00000200,00000000,0000.52,0000.56,0000.41,0000.02,0000.65,0000.19,-000.19,0000.12,0000.03,17.4,23.8,03.7,02.5,0671.0,30.9
2021-08-04T08:53:00Z,00000200,00000000,0000.92,0000.40,0000.21,-000.19,0000.44,0000.06,0000.01,-000.14,0000.19,17.4,23.8,03.7,02.5,0671.0,30.8
2021-08-04T08:54:00Z,00000200,00000000,0001.26,0000.29,-000.11,-000.32,0000.20,0000.21,0000.25,0000.22,0000.21,17.4,23.8,03.6,02.4,0671.0,30.8
2021-08-04T08:55:00Z,00000200,00000000,0000.46,0000.04,-000.04,-000.45,0000.16,-000.11,-000.39,-000.43,-000.25,17.3,23.8,03.6,02.4,0671.0,30.8
2021-08-04T08:56:00Z,00000200,00000000,0000.36,0000.36,0000.28,0000.39,0000.19,0000.27,0000.41,0000.46,0000.02,17.3,23.8,03.4,02.3,0671.0,30.8
2021-08-04T08:57:00Z,00000200,40000000,,,,,,,-000.40,-000.32,-000.16,17.4,23.8,03.3,02.2,0671.0,30.8
2021-08-04T08:58:00Z,00000200,60000000,,,,,,,0000.10,0000.10,0000.07,17.0,23.9,03.4,02.2,0670.1,30.8
2021-08-04T08:59:00Z,00000200,20000000,,,,,,,0000.09,0000.32,0000.13,17.0,24.0,03.4,02.2,0670.1,30.8
